Погода в Николаевском

Россия / Забайкальский край     51°03′03″N   111°46′19″E
темп.,
°C
ветер,
м/с
пор.,
м/с
влажн.,
%
обл.,
%
осадки,
мм/ч
давл.,
гПа
погр.,
м
17 мая, вт
вт1700:00+8зюз224013 0.0 100715
03:00+6зюз22501 0.0 100923
06:00+4юз226412 0.0 101028
09:00+13зюз353856 0.0 1008504
12:00+18сз6926100 0.0 10063443
15:00+20сз7826100 0.0 10053055
18:00+16з9842100 0.0 10071815
21:00+11з37675 0.0 1009209
18 мая, ср
ср1800:00+7юз34845 0.0 101163
03:00+6юз359158 0.0 101184
06:00+6юз35915 0.0 101298
09:00+14зсз713458 0.0 10101493
12:00+19сз81130100 0.0 10092668
15:00+21сз71023100 0.0 10073420
18:00+21сз892299 0.0 10073243
21:00+15сз34384 0.0 101064
19 мая, чт
чт1900:00+10зюз22575 0.0 101321
03:00+7юз22705 0.0 101424
06:00+6юз227769 0.0 101633
09:00+15з364977 0.0 1014602
12:00+21сз57318 0.0 10112106
15:00+25зсз582383 0.0 10093329
18:00+25сз691953 0.0 10073521
21:00+18сз223496 0.0 100813
20 мая, пт
пт2000:00+13зюз22465 0.0 101112
03:00+11зюз225757 0.0 101116
06:00+9юз22675 0.0 101215
09:00+17з25445 0.0 1010569
12:00+23сз69275 0.0 10072322
15:00+25сз7122269 0.0 10053529
18:00+25сз810235 0.0 10043196
21:00+19сз35327 0.0 1006115
21 мая, сб
сб2100:00+12зюз11415 0.0 100911
03:00+10юз11505 0.0 101111
06:00+8юз115716 0.0 101211
09:00+16з223820 0.0 1011383
12:00+23юз132349 0.0 10091135
15:00+26сз2523100 0.0 10063099
18:00+25сз5628100 0.0 10042861
21:00+13юз238290 0.9 100872